Location: Pouilly
(47.2624°N, 4.5558°E)
Time: 06:33:58
(UTC+00:00)

Cosmos 2263 Rocket - Pass Details

Date: 07 June 2020
Orbit: 825 x 847 km, 71.0° (Epoch: 07 July)

Event Time Altitude Azimuth Distance (km) Brightness Sun altitude
Rises 01:02:22 0° 333° (NNW) 3,391 6.0 -17.6°
Reaches altitude 10° 01:04:49 10° 334° (NNW) 2,450 5.2 -17.4°
Maximum altitude 01:10:27 83° 63° (ENE) 841 2.2 -17.1°
Enters shadow 01:15:45 11° 151° (SSE) 2,322 4.1 -16.8°
